Welcome to the New NWS' Forecast!
Most changes are behind the scenes, but click here for differences you might notice.
Latest weather observations around

Pine Bluff, Grider Field Airport (KPBF)

Using English Units (Switch to International System of Units)
Date/ Time (CDT) Wind (mph) Vis. (mi) Weather Sky Cond. Temp (°F) Rel. Humidity Wind Chill (°F) Heat Index (°F) Pressure Precip. (in)
Air Dwpt 6 hour Altimeter (inHg) Sea level (inHg) 1 hr 3 hr 6 hr
Max Min
Sep 19 05:53 Calm 7 Clear CLR 71 70     96%   72 29.94 29.93      
Sep 19 04:53 SSW 3 9 Clear CLR 73 71     94%   74 29.93 29.91      
Sep 19 03:53 S 3 6 Fog/Mist CLR 70 69     97%     29.92 29.91      
Sep 19 02:53 Calm 7 Clear CLR 71 69     93%   72 29.92 29.91      
Sep 19 01:53 S 3 10 Clear CLR 73 71     94%   74 29.92 29.91      
Sep 19 00:53 SSW 6 10 Clear CLR 75 71     88%   76 29.93 29.92      
Sep 18 23:53 Calm 10 Clear CLR 71 70     96%   72 29.95 29.94      
Sep 18 22:53 Calm 10 Clear CLR 73 71     94%   74 29.97 29.96      
Sep 18 21:53 Calm 10 Clear CLR 75 72     90%   76 29.97 29.96      
Sep 18 20:53 S 6 10 Clear CLR 76 72     88%   77 29.95 29.94      
Sep 18 19:53 S 6 10 Partly Cloudy SCT100 78 72     82%   79 29.95 29.94      
Sep 18 18:53 SW 3 10 Clear   84 71     65%   89 29.94 29.93      
Sep 18 17:53 SW 7 10 Clear CLR 86 69     57%   90 29.93 29.92      
Sep 18 16:53 SW 9 10 Clear CLR 88 69     54%   92 29.92 29.91      
Sep 18 15:53 6 10 Cloudy OVC120 89 68     50%   93 29.95 29.93      
Sep 18 14:53 SW 10 10 Mostly Cloudy BKN100 86 70     59%   91 29.97 29.96      
Sep 18 13:53 SSW 13 10 Clear CLR 87 73     63%   95 30 29.99      
Sep 18 12:53 SW 6 10 Clear CLR 88 71     57%   94 30.01 30     0
Sep 18 11:53 Calm 10 Mostly Clear FEW030 86 72     63%   92 30.03 30.02      
Sep 18 10:53 Calm 10 Clear CLR 83 72     70%   88 30.05 30.04 0    
Sep 18 09:53 Calm 10 Mostly Cloudy BKN060 80 72     76%   84 30.05 30.04      
Sep 18 08:53 SE 3 10 Mostly Clear FEW049 76 72     88%   77 30.04 30.03      
Sep 18 07:53 Calm 4 Fog/Mist SCT055 72 71     97%   73 30.05 30.04      
Sep 18 07:50 Calm 4 Fog/Mist SCT055 72 72     100%   73 30.05        
Sep 18 07:43 Calm 2.5 Fog/Mist CLR 71 70     96%   72 30.05        
Sep 18 07:14 Calm 1.5 Fog/Mist CLR 70 69     97%     30.05        
Sep 18 04:09 SSE 5 2.5 Fog/Mist CLR 69 68     96%     30        
Sep 18 03:53 Calm 1.5 Fog/Mist CLR 70 69     97%     30 29.98      
Sep 18 03:40 Calm 1.75 Fog/Mist CLR 69 69     100%     29.99        
Sep 18 02:53 Calm 5 Fog/Mist CLR 70 69     97%     29.98 29.97      
Sep 18 02:33 SE 3 4 Fog/Mist CLR 69 68     96%     29.99        
Sep 18 02:18 Calm 2 Fog/Mist CLR 70 69     97%     29.99        
Sep 18 02:05 Calm 0.75 Fog/Mist CLR 70 69     97%     29.99        
Sep 18 01:53 Calm 6 Fog/Mist CLR 71 70     96%   72 29.99 29.98      
Sep 18 00:53 Calm 10 Clear CLR 72 70     93%   73 30.01 30      
Sep 17 23:53 Calm 10 Clear CLR 74 70     87%   75 30.02 30.01      
Sep 17 22:53 Calm 10 Clear CLR 72 70     93%   73 30.03 30.02      
Sep 17 21:53 Calm 10 Clear CLR 74 71     91%   75 30.04 30.03      
Sep 17 20:53 Calm 10 Clear CLR 78 69     74%   79 30.03 30.02      
Sep 17 19:53 S 3 10 Clear CLR 78 71     79%   79 30.02 30.01      
Sep 17 18:53 Calm 10 Clear CLR 87 68     53%   91 30.01 30.01      
Sep 17 17:53 N 5 10 Clear CLR 90 66     45%   93 30 29.99      
Sep 17 16:53 NNW 5 10 Mostly Clear FEW055 89 67     48%   92 29.99 29.98      
Sep 17 15:53 3 10 Partly Cloudy SCT055 92 67     44%   95 30.01 30      
Sep 17 14:53 SSW 6 10 Clear CLR 90 67     47%   93 30.04 30.03      
Sep 17 13:53 S 5 10 Partly Cloudy SCT049 90 67     47%   93 30.07 30.06      
Sep 17 12:53 3 10 Clear CLR 89 68     50%   93 30.08 30.07      
Sep 17 11:53 Calm 10 Clear CLR 85 69     59%   89 30.09 30.08      
Sep 17 10:53 Calm 10 Clear CLR 84 71     65%   89 30.09 30.08      
Sep 17 09:53 Calm 10 Clear CLR 79 73     82%   82 30.09 30.08      
Sep 17 08:53 Calm 10 Clear CLR 75 72     90%   76 30.09 30.08      
Sep 17 07:53 Calm 7 Clear CLR 69 68     96%     30.08 30.07      
Sep 17 07:27 Calm 8 Mostly Clear FEW002 68 67     96%     30.07        
Sep 17 07:20 Calm 1.75 Fog/Mist FEW002 67 67     100%     30.07        
Sep 17 07:09 Calm 0.75 Fog/Mist VV002 67 66     97%     30.07        
Sep 17 06:57 Calm 0.75 Fog/Mist VV002 67 66     97%     30.06        
Sep 17 06:55 Calm 1.25 Fog/Mist SCT002 67 66     97%     30.06        
Sep 17 06:53 Calm 4 Fog/Mist SCT002 66 66     100%     30.06 30.05      
Sep 17 06:48 Calm 10 Partly Cloudy SCT002 66 66     100%     30.06        
Sep 17 06:01 Calm 5 Fog/Mist BKN002 68 67     96%     30.05        
Sep 17 05:53 Calm 2.5 Fog/Mist BKN002 68 67     96%     30.04 30.03      
Sep 17 05:47 Calm 2 Fog/Mist OVC002 68 66     94%     30.04        
Sep 17 05:37 Calm 0.5 Fog VV002 68 67     96%     30.04        
Sep 17 05:15 Calm 0.25 Fog VV002 69 68     96%     30.03        
Sep 17 04:44 Calm 1 Fog/Mist VV002 68 68     100%     30.03        
Sep 17 04:42 Calm 2.5 Fog/Mist FEW002 69 68     96%     30.03        
Sep 17 04:40 Calm 3 Fog/Mist CLR 69 68     96%     30.02        
Sep 17 04:30 Calm 1.25 Fog/Mist FEW003 67 67     100%     30.02        
Sep 17 03:53 Calm 0.5 Fog CLR 69 68     96%     30.03 30.02      
Sep 17 03:37 Calm 0.75 Fog/Mist CLR 69 69     100%     30.02        
Sep 17 03:29 Calm 2.5 Fog/Mist CLR 69 69     100%     30.02        
Sep 17 03:13 Calm 0.5 Fog CLR 69 68     96%     30.02        
Sep 17 01:53 SE 3 9 Clear CLR 71 70     96%   72 30.04 30.03      
Sep 17 00:53 Calm 9 Clear CLR 71 70     96%   72 30.03 30.02      
Sep 16 23:53 ESE 3 10 Clear CLR 73 71     94%   74 30.03 30.02      
Sep 16 22:53 E 3 10 Clear CLR 73 71     94%   74 30.04 30.03      
Sep 16 21:53 E 6 10 Clear CLR 73 71     94%   74 30.03 30.02      
Sep 16 20:53 Calm 10 Clear CLR 78 71     79%   79 30.01 30      
Sep 16 19:53 ENE 6 3 Haze SCT050 78 72     82%   79 29.99 29.98      
Sep 16 18:53 S 5 10 Clear CLR 83 72     70%   88 29.97 29.96      
Sep 16 17:53 SSW 3 10 Clear CLR 88 68     52%   92 29.98 29.97      
Sep 16 16:53 WSW 8 10 Clear CLR 89 68     50%   93 29.98 29.97      
Sep 16 15:53 SSW 7 10 Clear CLR 89 68     50%   93 29.99 29.98      
Sep 16 14:53   10 Clear CLR 89 69     52%   94 30 29.99      
Sep 16 13:53 SW 8 10 Mostly Clear FEW075 87 70     57%   92 30.02 30.01      
Sep 16 12:53 WSW 7 10 Mostly Clear FEW045 87 73     63%   95 30.04 30.03      
Sep 16 11:53 S 6 10 Mostly Cloudy SCT029 BKN037 BKN045 85 72     65%   91 30.05 30.04      
Sep 16 10:53 S 6 10 Clear CLR 82 73     74%   87 30.07 30.06      
Sep 16 09:53 S 6 10 Clear CLR 79 73     82%   82 30.06 30.06      
Sep 16 08:53 Calm 7 Clear CLR 73 69     87%   74 30.06 30.06      
Sep 16 07:53 Calm 3 Fog/Mist CLR 68 67     96%     30.05 30.04      
Sep 16 07:32 Calm 3 Fog/Mist CLR 67 66     97%     30.05        
Sep 16 07:15 Calm 2 Fog/Mist CLR 65 65     100%     30.04        
Sep 16 07:05 Calm 0.5 Fog CLR 64 64     100%     30.03        
Sep 16 06:53 Calm 1.75 Fog/Mist CLR 65 64     97%     30.03 30.02      
Sep 16 06:46 E 3 3 Fog/Mist CLR 65 64     97%     30.03        
Sep 16 06:28 Calm 2.5 Fog/Mist CLR 65 65     100%     30.02        
Sep 16 06:11 Calm 3 Fog/Mist CLR 65 64     97%     30.01        
Sep 16 05:53 Calm 2 Fog/Mist FEW003 64 63     96%     30.01 30      
Sep 16 05:49 Calm 1.25 Fog/Mist FEW003 64 63     94%     30.01        
Sep 16 05:45 Calm 0.5 Fog VV003 64 63     96%     30.01        
Sep 16 05:34 ESE 3 0.25 Fog VV003 64 63     96%     30.01        
Sep 16 05:29 ESE 3 0.5 Fog FEW003 FEW050 64 64     100%     30        
Sep 16 05:16 Calm 1.75 Fog/Mist SCT050 65 64     97%     30        
Sep 16 05:05 Calm 6 Fog/Mist BKN050 64 63     96%     30        
Sep 16 04:58 Calm 2 Fog/Mist FEW002 SCT055 65 64     97%     30        
Sep 16 04:53 Calm 1 Fog/Mist VV002 65 64     97%     30 29.99      
Sep 16 04:46 Calm 1.5 Fog/Mist CLR 66 65     96%     30        
Sep 16 04:28 Calm 4 Fog/Mist CLR 66 65     96%     30        
Sep 16 04:21 Calm 2.5 Fog/Mist CLR 65 65     100%     29.99        
Sep 16 04:15 Calm 0.75 Fog/Mist CLR 65 65     100%     29.99        
Sep 16 04:02 Calm 1 Fog/Mist CLR 66 65     96%     29.99        
Sep 16 03:53 Calm 0.25 Fog CLR 65 64     97%     29.99 29.98      
Sep 16 03:27 Calm 0.25 Fog CLR 65 64     97%     29.99        
Sep 16 03:18 Calm 0.5 Fog CLR 65 65     100%     29.98        
Sep 16 03:06 Calm 1.5 Fog/Mist CLR 66 65     96%     29.98        
Jun 11 16:53 SSE 11 10 Clear CLR 88 68     52%   92 29.99 29.98      
Jun 09 06:05 Calm 4 Fog/Mist CLR 57 56     96%     29.95        
Jun 09 04:53 Calm 10 Clear CLR 58 57     97%     29.93 29.93      
Jun 08 23:53 Calm 10 Clear   62 58     86%     29.95 29.94      
Jun 08 22:53 Calm 10 Clear CLR 64 58     81%     29.95 29.94      
Jun 08 18:53 NE 7 10 Clear   76 56     50%   76 29.91 29.91      
Jun 08 15:53 N 11 10 Clear CLR 80 54     41%   80 29.95 29.94      
Jun 08 00:53 NNW 5 10 Clear CLR 64 58     81%     29.96 29.96      
Jun 06 12:53 NNE 11 10 Clear CLR 83 68     61%   86 29.81 29.8      
Jun 06 01:38 NNE 7 10 Mostly Cloudy BKN008 73 71     94%   74 29.78        
Notice The following observation data may not be complete
Jun 05 13:53 Calm 10 Cloudy OVC080   70      %     29.76 29.75